Temperature
4 5 5 4 4 5 4 4 4 5 6 5 6 6 6 6 6 5 5 5 5 4 4 4 4 4 4 4 4 4 4 4 4 4 4 4 4 4 4 4 4 4 4 4
2 4 4 4 4 4 4 4 5 5 5 5 6 5 5 5 5 5 4 4 4 4 4 4 3 3 3 4 4 3 3 3 3 3 4 4 4 3 3 3 3 3 3 3
2 4 3 2 3 3 3 3 4 3 3 4 4 4 4 4 4 4 4 4 4 3 3 3 3 3 3 3 3 3 3 3 3 3 3 3 3 3 3 3 3 3 3 3
1 2 1 3 4 3 3 3 3 3 3 3 3 3 3 3 3 3 3 3 3 3 3 3 2 2 3 3 3 3 2 2 3 3 3 3 2 3 3 2 2 2 2 2
1 1 2 3 2 2 2 2 2 2 2 3 3 3 2 2 2 2 2 2 2 2 2 2 2 2 2 2 2 2 2 2 2 2 2 2 2 2 2 2 2 2 2 2
0 1 1 1 1 2 2 1 1 1 1 1 1 0 1 1 1 1 1 1 1 1 1 1 1 2 2 2 2 2 2 2 2 2 2 2 1 1 1 1 1 1 1 1
-0 -0 0 0 1 2 0 -0 0 0 0 0 -0 -0 -0 -0 -0 -0 0 0 0 1 1 1 1 1 1 1 1 2 1 1 1 1 1 1 1 1 1 1 1 1 1 1
-1 -1 -1 -0 -0 -1 -1 -1 -0 -0 -0 -1 -1 -1 -1 -1 -1 -1 -1 -0 -0 -0 -0 -0 0 0 1 1 1 1 1 1 1 1 1 0 0 0 0 0 0 0 0 0
-1 -1 -0 -1 -1 -1 -1 -1 -1 -1 -1 -2 -2 -2 -2 -2 -1 -1 -1 -1 -1 -1 -1 -1 -0 -0 0 0 0 0 0 0 0 0 0 -0 -0 -0 -0 -0 -0 -0 -0 -0
-2 -1 -1 -1 -1 -2 -2 -2 -2 -2 -2 -2 -2 -2 -2 -2 -2 -2 -2 -2 -2 -2 -1 -1 -1 -1 -1 -0 -0 -0 -0 -0 -0 -0 -0 -1 -1 -1 -1 -1 -1 -1 -1 -1
-3 -2 -2 -2 -2 -3 -3 -3 -3 -3 -3 -3 -3 -3 -3 -3 -3 -3 -2 -2 -2 -2 -2 -2 -2 -1 -1 -1 -1 -1 -1 -1 -1 -1 -1 -1 -1 -1 -1 -1 -1 -1 -1 -1
-4 -3 -3 -3 -3 -3 -4 -4 -4 -4 -4 -4 -4 -4 -3 -3 -3 -3 -3 -3 -3 -3 -3 -2 -2 -2 -2 -2 -1 -1 -1 -1 -1 -1 -1 -1 -2 -2 -2 -2 -2 -2 -2 -2
-4 -4 -4 -4 -4 -4 -5 -5 -4 -5 -5 -4 -4 -4 -4 -4 -4 -4 -3 -3 -3 -3 -3 -3 -3 -3 -2 -2 -2 -2 -2 -2 -2 -2 -2 -2 -2 -2 -2 -2 -2 -2 -2 -2
-5 -5 -5 -5 -5 -5 -5 -5 -5 -5 -5 -5 -5 -5 -5 -5 -5 -4 -4 -4 -4 -4 -4 -3 -3 -3 -3 -3 -3 -3 -3 -3 -3 -3 -3 -3 -3 -3 -3 -3 -3 -3 -3 -3
-6 -6 -6 -6 -6 -6 -6 -6 -6 -6 -6 -6 -6 -5 -5 -5 -5 -5 -5 -5 -5 -4 -4 -4 -4 -4 -4 -4 -3 -3 -3 -3 -3 -3 -4 -4 -3 -3 -4 -4 -4 -4 -4 -4
-7 -6 -7 -7 -7 -7 -7 -7 -7 -7 -7 -7 -6 -6 -6 -6 -6 -6 -6 -5 -5 -5 -5 -5 -4 -4 -4 -4 -4 -4 -4 -4 -4 -4 -4 -4 -4 -4 -4 -4 -4 -4 -4 -4
-7 -7 -7 -7 -7 -7 -7 -7 -7 -7 -7 -7 -7 -7 -6 -6 -6 -6 -6 -6 -6 -6 -5 -5 -5 -5 -5 -5 -5 -5 -5 -5 -5 -5 -5 -5 -5 -5 -5 -5 -5 -5 -5 -5
-8 -8 -8 -8 -8 -8 -8 -8 -8 -8 -8 -8 -7 -7 -7 -7 -7 -7 -7 -7 -6 -6 -6 -6 -6 -6 -5 -5 -5 -5 -5 -5 -5 -5 -5 -6 -6 -6 -6 -6 -6 -6 -6 -6
-8 -8 -8 -8 -8 -8 -8 -8 -8 -8 -8 -8 -8 -8 -8 -8 -8 -8 -7 -7 -7 -7 -7 -7 -7 -6 -6 -6 -6 -6 -6 -6 -6 -6 -6 -6 -6 -6 -6 -6 -6 -6 -6 -6
-8 -8 -8 -8 -8 -8 -8 -8 -8 -8 -8 -8 -8 -8 -8 -8 -8 -8 -8 -8 -8 -8 -8 -7 -7 -7 -7 -7 -7 -6 -6 -7 -7 -7 -7 -7 -7 -7 -7 -7 -7 -7 -7 -7
-9 -9 -9 -9 -9 -9 -9 -9 -8 -8 -8 -8 -9 -9 -9 -9 -9 -9 -8 -8 -8 -8 -8 -8 -8 -7 -7 -7 -7 -7 -7 -7 -7 -7 -7 -7 -7 -7 -7 -7 -7 -7 -7 -7
-9 -9 -9 -9 -9 -9 -9 -9 -9 -9 -9 -9 -9 -9 -9 -9 -9 -9 -9 -9 -9 -9 -8 -8 -8 -8 -8 -8 -8 -8 -8 -8 -8 -8 -8 -8 -8 -8 -8 -8 -8 -8 -8 -8
-10 -10 -10 -10 -10 -10 -10 -10 -10 -10 -10 -10 -10 -10 -10 -10 -10 -10 -10 -9 -9 -9 -9 -9 -9 -9 -9 -9 -9 -9 -9 -9 -8 -8 -8 -8 -8 -8 -8 -8 -8 -8 -8 -8
-10 -10 -10 -10 -10 -10 -10 -10 -10 -10 -10 -10 -10 -10 -10 -10 -10 -10 -10 -10 -10 -10 -10 -9 -9 -9 -9 -9 -9 -9 -9 -9 -9 -9 -9 -9 -9 -9 -9 -9 -9 -9 -9 -9
-10 -10 -10 -11 -11 -11 -11 -11 -10 -10 -10 -11 -11 -11 -11 -11 -11 -11 -11 -10 -10 -10 -10 -10 -10 -10 -10 -10 -10 -10 -10 -10 -9 -9 -9 -9 -9 -9 -9 -9 -9 -9 -9 -9
-11 -11 -11 -11 -11 -11 -11 -11 -11 -11 -11 -11 -11 -11 -11 -11 -11 -11 -11 -11 -11 -11 -10 -10 -10 -10 -10 -10 -10 -10 -10 -10 -10 -10 -10 -10 -10 -10 -9 -9 -9 -9 -9 -9
-11 -11 -11 -11 -11 -12 -12 -12 -12 -12 -12 -12 -12 -12 -12 -12 -11 -11 -11 -11 -11 -11 -11 -11 -11 -11 -11 -11 -11 -11 -11 -11 -10 -10 -10 -10 -10 -10 -10 -10 -10 -10 -10 -10
Wind_Speed
12 12 10 10 9 8 9 9 8 10 9 8 6 6 5 3 3 3 2 1 1 1 1 1 1 1 1 1 1 1 2 2 2 2 2 2 2 2 2 2 3 3 3 3
10 10 10 12 9 8 10 9 11 12 11 7 7 5 5 4 4 4 4 3 2 1 1 2 1 2 2 2 1 1 2 2 1 1 2 2 2 2 3 2 2 2 3 3
7 7 7 7 5 6 6 5 5 8 9 8 7 7 6 5 5 5 5 5 4 3 2 2 2 2 2 3 2 2 2 2 2 2 2 2 2 2 3 3 3 2 2 3
5 5 6 3 2 2 3 3 3 5 6 7 7 7 5 4 5 6 6 6 5 4 3 2 2 2 2 2 2 2 2 2 2 2 2 2 2 2 2 2 2 2 2 2
4 5 6 4 4 5 4 5 5 6 9 10 9 6 4 6 6 6 6 6 5 4 4 3 2 2 2 2 2 2 2 2 2 2 2 2 2 2 2 2 2 2 2 2
5 5 4 4 8 8 3 3 8 9 9 9 9 6 6 8 7 7 7 6 5 4 4 3 3 2 1 2 1 2 2 2 1 1 2 2 2 2 2 2 2 2 2 2
6 6 3 6 9 6 1 5 9 8 8 8 6 6 8 8 8 7 7 6 5 5 4 3 2 2 2 1 1 1 0 1 1 1 1 1 2 2 2 2 2 2 2 2
3 4 4 7 6 3 5 8 9 9 8 8 8 8 8 7 8 7 6 6 5 4 5 4 3 1 1 2 2 1 1 1 1 2 2 2 2 2 2 3 3 2 2 2
2 3 4 4 4 5 7 8 9 9 9 9 8 8 8 8 8 7 6 5 4 4 4 4 3 2 1 2 1 1 2 2 2 3 2 3 3 3 2 2 2 2 2 2
4 4 6 6 7 8 8 8 10 9 9 8 8 8 8 7 7 7 6 5 4 4 4 4 3 3 2 2 1 2 2 2 2 3 3 2 2 2 2 2 2 2 2 2
6 7 8 7 9 10 10 10 9 9 9 8 8 7 7 7 6 6 5 5 4 3 4 4 3 3 3 3 2 3 2 2 2 2 3 3 3 2 2 2 2 2 1 1
5 7 7 10 10 11 11 11 10 10 10 9 7 7 7 6 5 5 5 4 4 3 3 4 4 4 4 4 3 3 2 2 2 2 3 3 3 3 5 3 4 4 3 2
7 9 9 10 11 10 10 10 10 10 9 9 8 7 6 6 5 5 5 4 4 3 3 4 4 4 4 4 3 3 3 2 2 2 3 3 3 3 3 4 5 5 5 4
8 9 9 10 12 11 10 10 10 9 8 7 7 7 6 6 5 5 5 5 4 3 3 4 4 4 4 4 3 3 3 3 3 3 3 3 3 3 3 3 3 3 4 4
9 9 10 11 11 11 10 9 9 8 8 8 7 7 6 6 5 5 4 4 3 3 4 4 4 4 4 4 3 4 3 3 3 3 3 3 3 3 3 3 3 2 3 3
12 11 10 10 11 10 10 9 8 8 8 8 7 7 6 5 5 4 5 5 4 5 5 5 4 5 5 4 4 4 4 5 4 3 3 3 3 3 3 3 3 2 2 2
10 11 11 11 11 10 9 7 7 7 6 6 7 7 6 6 5 5 6 6 5 5 6 6 5 5 5 5 4 3 3 4 5 4 3 3 3 3 2 2 2 2 2 3
8 8 9 9 9 9 9 8 7 6 6 6 6 6 6 6 5 5 5 5 5 6 7 6 6 6 6 5 4 3 3 3 3 3 3 3 2 2 2 2 2 2 2 3
8 9 9 9 8 7 7 7 7 6 5 5 5 5 5 5 5 5 5 5 6 6 6 6 8 7 6 6 5 3 3 3 3 3 3 3 3 2 2 2 2 2 2 2
8 9 9 9 8 7 7 7 6 5 5 5 5 5 6 6 5 5 5 5 5 4 5 6 6 5 5 5 5 3 3 3 2 2 2 2 2 2 2 2 2 2 2 2
8 8 8 8 8 7 7 6 6 6 6 5 5 5 5 5 5 5 4 4 5 6 6 7 5 5 4 5 5 3 3 3 2 2 2 2 2 2 2 2 2 2 2 2
7 7 7 7 7 7 6 6 6 6 6 6 6 6 5 6 5 5 4 3 4 7 6 4 4 5 6 6 3 3 3 3 2 2 2 2 1 1 2 2 2 2 2 2
6 6 6 7 7 7 6 6 5 5 5 6 6 6 5 4 4 4 4 4 4 7 6 4 5 7 7 5 3 3 3 3 2 2 2 2 1 1 1 2 2 2 2 2
6 6 6 6 6 6 7 7 6 5 5 5 5 5 4 4 4 3 3 6 8 8 5 6 8 8 7 4 3 3 3 2 2 2 2 2 2 1 2 2 2 2 2 3
6 6 6 6 6 5 6 6 6 5 5 4 5 5 4 3 3 4 4 4 7 7 4 6 8 8 5 3 3 3 2 2 2 2 2 2 2 2 2 2 2 2 3 3
5 5 4 4 4 4 5 5 5 5 5 5 5 4 4 4 4 4 3 4 5 6 5 3 4 5 3 3 3 3 3 3 3 3 3 3 3 3 2 3 3 3 3 3
5 4 4 4 4 5 5 5 5 5 5 5 5 5 5 5 4 4 5 4 4 4 4 3 3 3 3 3 3 3 3 3 3 3 3 3 3 3 3 3 3 3 4 4
Wind_Direction
277 285 285 277 273 255 242 242 251 269 275 296 321 327 329 339 348 344 334 328 324 328 323 320 328 314 264 230 206 210 215 218 214 199 197 200 202 198 193 196 208 203 203 205
282 276 276 276 278 265 255 255 261 276 282 310 327 334 334 336 330 318 316 307 299 308 303 288 296 305 303 276 233 209 212 225 221 201 204 204 208 204 196 194 201 191 196 198
278 289 288 270 270 257 255 262 261 267 285 320 329 330 323 326 332 325 323 325 319 307 289 285 282 287 280 285 268 223 218 219 209 211 212 209 207 206 201 198 194 190 192 186
273 290 250 257 17 330 269 289 298 300 314 325 315 308 310 332 337 324 320 318 319 319 302 292 295 296 285 286 262 220 218 217 207 202 207 192 182 200 201 185 180 177 177 174
254 259 271 301 348 334 289 296 342 330 327 334 330 320 325 355 346 331 323 318 313 311 315 316 306 292 283 289 255 212 214 215 206 199 192 175 178 185 185 169 163 157 157 146
250 260 268 330 342 329 303 291 0 349 336 336 344 326 312 332 334 335 331 326 324 330 333 326 322 325 296 294 267 231 220 208 183 179 175 174 171 161 148 142 144 133 124 121
257 256 269 343 345 355 27 313 336 337 331 330 322 305 311 324 331 333 332 331 335 341 333 326 331 341 308 302 279 267 222 118 132 140 142 133 127 126 124 122 114 112 107 97
282 269 289 2 10 3 312 326 331 332 331 327 321 322 324 324 325 328 332 335 342 341 333 331 331 331 305 305 309 354 86 107 122 121 110 99 100 100 110 119 115 110 105 92
259 270 324 358 333 325 332 328 329 329 329 328 324 326 327 326 327 326 327 333 338 336 332 328 334 344 330 321 343 100 113 115 112 109 106 106 108 107 109 117 124 119 110 100
292 296 322 329 334 333 331 329 328 328 327 330 328 326 328 328 329 329 331 334 335 337 337 337 354 1 355 354 35 96 108 113 113 111 104 100 98 99 106 110 117 115 112 108
288 307 326 333 339 337 335 334 331 331 332 331 328 325 326 324 323 327 330 336 341 345 346 347 2 11 10 17 54 81 85 85 93 102 114 109 97 93 103 96 116 119 123 129
301 324 316 312 324 331 331 330 329 326 325 327 325 323 328 325 324 331 334 339 346 354 356 359 19 25 22 24 48 84 86 81 85 91 98 103 100 75 61 74 64 61 66 75
307 314 310 311 321 328 323 321 321 318 315 318 322 322 322 321 326 333 334 336 345 356 4 15 30 29 21 24 44 68 77 75 82 89 93 96 101 99 79 55 54 51 53 59
327 326 314 318 316 318 319 319 318 316 319 322 325 328 329 332 333 335 336 338 348 5 15 25 36 26 18 25 45 60 64 65 67 72 78 81 84 86 91 88 67 43 40 53
333 326 310 311 315 319 321 323 324 325 329 334 337 338 340 338 332 334 342 350 5 19 20 25 28 18 15 28 46 55 59 65 64 67 70 72 73 76 75 70 68 56 42 38
322 322 323 325 326 328 329 329 327 325 329 332 336 338 340 342 348 357 5 14 21 21 18 23 21 14 16 30 46 54 59 58 57 60 63 64 65 68 67 64 57 48 38 24
329 329 330 329 327 327 327 326 325 327 333 338 342 345 353 1 9 14 16 21 25 25 25 25 19 16 21 36 50 52 54 55 52 59 63 62 61 62 62 60 54 43 28 18
319 315 316 316 317 319 324 330 335 339 341 340 346 355 2 9 11 11 13 18 27 30 27 23 22 25 31 36 44 50 53 53 51 59 60 58 57 55 58 55 46 39 23 16
329 328 328 329 326 323 327 333 337 341 345 351 356 360 4 9 14 14 18 24 26 24 16 20 23 30 30 29 32 42 47 48 43 42 47 47 44 42 43 41 32 19 12 12
335 338 340 341 342 342 340 340 343 347 351 358 0 4 7 9 13 17 23 27 23 16 11 15 20 26 25 21 23 35 40 44 42 39 39 37 34 29 25 21 17 9 4 1
336 339 342 344 345 348 348 348 353 354 355 2 4 359 357 0 6 12 16 13 10 10 13 15 19 18 17 14 17 32 36 37 35 33 25 22 23 22 15 12 6 358 354 353
334 337 340 342 345 345 350 356 359 358 359 359 358 357 359 358 359 3 10 5 2 3 9 12 12 9 8 9 18 28 29 25 18 16 14 9 9 7 2 3 357 349 345 342
333 335 338 340 339 337 345 354 356 357 355 354 354 353 349 343 345 350 349 358 4 1 4 5 359 1 4 12 18 19 16 12 5 357 353 351 347 349 347 342 339 335 331 326
333 335 335 335 338 345 349 348 349 350 347 343 348 349 345 342 345 353 350 346 353 354 359 353 358 1 5 14 11 8 4 358 351 347 350 350 349 350 341 333 328 323 318 315
332 331 335 341 345 343 341 341 344 348 349 350 354 356 353 346 339 339 342 344 345 350 354 351 352 355 2 1 358 354 348 340 335 339 342 339 336 333 326 320 315 313 313 308
329 327 325 326 327 329 333 340 343 344 345 346 349 351 350 349 345 343 343 344 343 344 346 342 341 345 350 348 343 338 335 334 338 340 334 329 322 318 312 310 306 303 301 301
328 329 332 338 345 347 346 346 343 342 343 341 337 341 344 345 346 345 343 341 340 340 338 338 339 339 336 333 330 327 324 323 321 317 316 313 309 307 307 305 303 302 301 297
Height
1476 1471 1470 1469 1467 1466 1466 1466 1466 1458 1454 1453 1452 1451 1450 1449 1449 1449 1448 1448 1448 1448 1447 1447 1446 1446 1445 1445 1445 1444 1445 1445 1445 1446 1446 1447 1447 1448 1449 1450 1451 1451 1452 1453
1477 1470 1468 1466 1463 1462 1461 1460 1458 1455 1453 1452 1451 1450 1449 1449 1448 1447 1447 1446 1446 1445 1445 1444 1444 1443 1442 1442 1441 1441 1441 1441 1442 1443 1443 1444 1444 1445 1445 1446 1447 1448 1448 1449
1477 1468 1466 1466 1463 1461 1460 1458 1458 1458 1456 1452 1451 1450 1449 1448 1447 1446 1445 1444 1443 1443 1442 1442 1441 1440 1439 1438 1438 1438 1438 1438 1439 1440 1440 1441 1441 1441 1442 1442 1443 1444 1445 1446
1478 1474 1474 1464 1458 1457 1456 1456 1457 1455 1453 1452 1451 1449 1447 1447 1446 1445 1444 1442 1441 1440 1439 1438 1438 1437 1436 1436 1435 1435 1435 1435 1436 1436 1437 1437 1438 1438 1438 1439 1440 1441 1442 1443
1478 1473 1464 1460 1460 1459 1458 1457 1456 1455 1453 1451 1449 1446 1444 1445 1445 1443 1442 1440 1439 1437 1436 1435 1435 1434 1433 1432 1432 1432 1432 1432 1432 1433 1433 1434 1435 1435 1436 1437 1437 1438 1440 1440
1475 1472 1468 1466 1462 1457 1457 1459 1457 1456 1454 1452 1449 1449 1446 1444 1443 1441 1439 1437 1436 1434 1433 1432 1432 1431 1430 1430 1429 1429 1429 1429 1430 1430 1431 1431 1432 1433 1434 1435 1436 1436 1437 1438
1476 1472 1468 1467 1463 1458 1465 1465 1460 1457 1455 1453 1451 1450 1447 1443 1441 1439 1437 1435 1433 1432 1431 1430 1429 1429 1428 1427 1427 1427 1427 1427 1427 1428 1429 1430 1430 1431 1432 1433 1434 1434 1435 1436
1477 1475 1475 1468 1466 1468 1468 1463 1460 1457 1454 1452 1449 1446 1444 1441 1438 1436 1434 1432 1431 1430 1428 1428 1427 1427 1426 1425 1425 1425 1425 1425 1425 1426 1427 1428 1428 1429 1430 1431 1432 1432 1433 1434
1478 1477 1473 1470 1469 1467 1465 1462 1459 1456 1453 1451 1447 1444 1442 1439 1436 1434 1432 1430 1429 1428 1427 1426 1425 1425 1424 1423 1423 1423 1423 1423 1424 1424 1425 1426 1427 1428 1428 1429 1430 1431 1431 1432
1476 1473 1472 1470 1468 1466 1464 1461 1458 1455 1452 1449 1445 1442 1440 1437 1435 1433 1430 1428 1427 1426 1425 1424 1423 1423 1422 1422 1421 1421 1421 1421 1422 1422 1423 1424 1425 1426 1427 1428 1428 1429 1430 1431
1476 1474 1471 1468 1467 1465 1462 1458 1455 1452 1450 1447 1444 1440 1438 1435 1433 1431 1429 1427 1426 1424 1423 1422 1422 1421 1421 1420 1420 1420 1420 1420 1421 1421 1422 1422 1424 1425 1426 1427 1428 1428 1429 1429
1479 1476 1474 1470 1467 1464 1460 1457 1453 1450 1447 1444 1442 1439 1436 1434 1432 1430 1428 1426 1424 1423 1422 1421 1421 1420 1420 1419 1419 1419 1419 1419 1419 1420 1420 1421 1422 1423 1425 1426 1427 1427 1428 1428
1479 1476 1473 1469 1465 1462 1459 1455 1451 1448 1445 1442 1439 1437 1435 1432 1430 1428 1426 1425 1423 1422 1421 1420 1420 1419 1419 1419 1419 1418 1418 1418 1418 1419 1419 1420 1421 1422 1423 1425 1426 1426 1427 1427
1477 1474 1469 1465 1462 1459 1455 1452 1449 1446 1443 1440 1437 1434 1432 1430 1428 1426 1425 1423 1422 1421 1420 1419 1419 1418 1419 1418 1418 1417 1417 1417 1418 1418 1419 1420 1421 1422 1422 1423 1424 1425 1426 1426
1475 1472 1469 1464 1459 1455 1452 1448 1445 1442 1439 1437 1434 1432 1430 1428 1426 1425 1423 1422 1421 1420 1419 1419 1418 1418 1418 1418 1417 1417 1417 1417 1417 1418 1419 1420 1420 1421 1422 1423 1423 1424 1425 1425
1472 1469 1465 1461 1456 1452 1449 1445 1443 1440 1437 1435 1432 1430 1429 1427 1425 1423 1422 1420 1420 1419 1419 1418 1418 1417 1417 1417 1417 1416 1417 1417 1417 1418 1419 1420 1420 1421 1421 1422 1423 1423 1424 1424
1470 1465 1461 1458 1454 1451 1448 1445 1442 1439 1436 1434 1432 1430 1428 1425 1423 1422 1421 1420 1420 1419 1419 1418 1418 1418 1417 1417 1417 1416 1416 1417 1418 1418 1419 1420 1420 1421 1421 1422 1422 1423 1423 1424
1470 1466 1462 1458 1454 1450 1446 1444 1441 1438 1436 1434 1432 1430 1427 1425 1424 1422 1421 1420 1420 1419 1419 1418 1418 1417 1417 1417 1417 1417 1417 1418 1418 1419 1419 1420 1420 1421 1421 1422 1422 1422 1423 1423
1467 1463 1459 1456 1452 1449 1446 1443 1440 1438 1436 1434 1432 1430 1428 1426 1425 1423 1422 1421 1419 1419 1419 1419 1418 1417 1417 1417 1417 1418 1418 1418 1418 1419 1419 1420 1420 1421 1421 1421 1421 1422 1422 1422
1465 1461 1458 1454 1451 1448 1445 1442 1440 1438 1436 1434 1432 1430 1429 1427 1426 1424 1423 1422 1421 1421 1420 1420 1419 1418 1418 1418 1418 1418 1418 1418 1419 1419 1419 1420 1420 1420 1420 1421 1421 1421 1421 1421
1464 1460 1457 1453 1450 1447 1445 1442 1440 1438 1436 1434 1433 1431 1429 1428 1427 1425 1423 1422 1422 1422 1421 1420 1420 1419 1418 1418 1418 1418 1418 1418 1418 1419 1419 1419 1419 1420 1420 1420 1420 1420 1420 1419
1462 1459 1456 1453 1450 1447 1444 1442 1440 1438 1436 1434 1433 1431 1429 1428 1427 1425 1424 1424 1423 1422 1421 1421 1420 1420 1419 1419 1418 1418 1418 1418 1418 1418 1418 1418 1418 1418 1419 1419 1418 1418 1418 1418
1461 1458 1455 1452 1450 1447 1444 1442 1440 1438 1436 1435 1433 1431 1430 1428 1427 1425 1424 1424 1423 1422 1422 1421 1420 1420 1420 1419 1418 1418 1418 1417 1417 1417 1417 1417 1417 1417 1417 1417 1417 1416 1416 1415
1460 1458 1455 1452 1450 1447 1444 1442 1441 1439 1437 1435 1434 1432 1430 1428 1427 1426 1425 1424 1423 1422 1421 1421 1420 1419 1419 1418 1418 1417 1417 1416 1416 1416 1416 1415 1415 1415 1415 1415 1414 1414 1413 1413
1459 1457 1454 1451 1449 1447 1444 1443 1440 1438 1437 1435 1434 1432 1430 1429 1427 1426 1424 1423 1422 1421 1420 1420 1419 1418 1418 1417 1416 1416 1415 1415 1414 1414 1414 1413 1413 1413 1413 1412 1412 1411 1410 1410
1458 1456 1453 1451 1449 1447 1445 1442 1440 1438 1437 1435 1433 1431 1430 1428 1427 1425 1424 1423 1421 1420 1419 1418 1417 1417 1416 1415 1415 1414 1413 1413 1412 1412 1411 1411 1411 1410 1410 1409 1409 1408 1407 1406
1457 1455 1453 1451 1449 1447 1445 1442 1440 1438 1437 1435 1433 1431 1429 1427 1426 1424 1423 1421 1420 1419 1418 1417 1416 1415 1414 1413 1412 1412 1411 1410 1410 1409 1409 1408 1408 1407 1407 1406 1406 1405 1404 1403